Tracking 28052 objects as of 22-Sep-2023
HD Live streaming from Space Station
objects crossing your sky now

FLOCK 4X 5

Track FLOCK 4X 5 now!
10-day predictions


NORAD ID: 51004
Int'l Code: 2022-002W
Perigee: 475.1 km
Apogee: 485.4 km
Inclination: 97.4 °
Period: 94.1 minutes
Semi major axis: 6851 km
RCS: Unknown
Launch date: January 13, 2022
Source: United States (US)
Launch site: AIR FORCE EASTERN TEST RANGE (AFETR)
Your satellite tracking list
Your tracking list is empty




NASA's NSSDC Master Catalog

Two Line Element Set (TLE):
1 51004U 22002W   23265.16272980  .00016241  00000-0  54554-3 0  9999
2 51004  97.4269 333.4498 0007505 241.9570 118.0912 15.30899765 93667
Source of the keplerian elements: AFSPC